| time (UTC) | temp F | wind direction | speed knots | gust knots | rain 1hr in | rain 24hr in | rain mn in | humidity % | barometer mb |
| 20260504231542 | 54 | 0 | 2.6 | 11.3 | 0.00 | 0.00 | 0.00 | 81 | 1011.3 |
| 20260504230046 | 55 | 176 | 2.6 | 9.6 | 0.00 | 0.00 | 0.00 | 80 | 1011.3 |
| 20260504224546 | 56 | 0 | 2.6 | 11.3 | 0.00 | 0.00 | 0.00 | 78 | 1011.3 |
| 20260504223040 | 57 | 0 | 4.3 | 15.6 | 0.00 | 0.00 | 0.00 | 77 | 1011.4 |
| 20260504221545 | 58 | 0 | 6.1 | 15.6 | 0.00 | 0.00 | 0.00 | 76 | 1011.4 |
| 20260504220046 | 59 | 0 | 7.8 | 17.4 | 0.00 | 0.00 | 0.00 | 74 | 1011.3 |
| 20260504214551 | 59 | 191 | 6.1 | 18.2 | 0.00 | 0.00 | 0.00 | 73 | 1011.4 |
| 20260504213041 | 60 | 186 | 3.5 | 17.4 | 0.00 | 0.00 | 0.00 | 72 | 1011.4 |
| 20260504211548 | 60 | 0 | 3.5 | 17.4 | 0.00 | 0.00 | 0.00 | 71 | 1011.4 |
| 20260504210058 | 60 | 154 | 6.1 | 17.4 | 0.00 | 0.00 | 0.00 | 71 | 1011.5 |
| 20260504204557 | 60 | 176 | 5.2 | 19.1 | 0.00 | 0.00 | 0.00 | 70 | 1011.5 |
| 20260504203056 | 61 | 194 | 7.8 | 19.1 | 0.00 | 0.00 | 0.00 | 69 | 1011.4 |
| 20260504201542 | 61 | 173 | 5.2 | 18.2 | 0.00 | 0.00 | 0.00 | 70 | 1011.4 |
| 20260504200041 | 61 | 221 | 9.6 | 19.1 | 0.00 | 0.00 | 0.00 | 69 | 1011.7 |
| 20260504194547 | 62 | 219 | 7.8 | 21.7 | 0.00 | 0.00 | 0.00 | 68 | 1011.8 |
| 20260504193044 | 63 | 234 | 7.0 | 19.1 | 0.00 | 0.00 | 0.00 | 65 | 1011.8 |
| 20260504191542 | 63 | 209 | 7.0 | 17.4 | 0.00 | 0.00 | 0.00 | 65 | 1011.8 |
| 20260504190042 | 63 | 0 | 5.2 | 21.7 | 0.00 | 0.00 | 0.00 | 65 | 1011.9 |
| 20260504184544 | 63 | 231 | 11.3 | 23.5 | 0.00 | 0.00 | 0.00 | 65 | 1012.1 |
| 20260504183047 | 63 | 216 | 8.7 | 20.9 | 0.00 | 0.00 | 0.00 | 65 | 1012.3 |
| 20260504181545 | 63 | 206 | 6.1 | 18.2 | 0.00 | 0.00 | 0.00 | 67 | 1012.5 |
| 20260504180044 | 62 | 221 | 10.4 | 20.9 | 0.00 | 0.00 | 0.00 | 67 | 1012.5 |
| 20260504174543 | 62 | 213 | 6.1 | 17.4 | 0.00 | 0.00 | 0.00 | 68 | 1012.8 |
| 20260504173049 | 62 | 228 | 11.3 | 20.9 | 0.00 | 0.00 | 0.00 | 68 | 1012.8 |
| 20260504171542 | 62 | 213 | 7.8 | 16.5 | 0.00 | 0.00 | 0.00 | 70 | 1012.9 |
| 20260504081548 | 51 | 228 | 7.0 | 14.8 | 0.00 | 0.00 | 0.00 | 75 | 1013.7 |
| 20260504044542 | 50 | 236 | 2.6 | 11.3 | 0.00 | 0.00 | 0.00 | 78 | 1013.0 |
| 20260504043043 | 50 | 222 | 1.7 | 8.7 | 0.00 | 0.00 | 0.00 | 77 | 1013.1 |
| 20260504041544 | 50 | 224 | 0.9 | 9.6 | 0.00 | 0.00 | 0.00 | 77 | 1012.8 |
| 20260504040049 | 50 | 224 | 2.6 | 9.6 | 0.00 | 0.00 | 0.00 | 79 | 1012.9 |
| 20260504034552 | 49 | 218 | 1.7 | 8.7 | 0.00 | 0.00 | 0.00 | 80 | 1012.8 |
| 20260504033042 | 49 | 240 | 1.7 | 7.0 | 0.00 | 0.00 | 0.00 | 78 | 1012.8 |
| 20260504031543 | 48 | 224 | 2.6 | 7.8 | 0.00 | 0.00 | 0.00 | 76 | 1012.6 |
| 20260504030042 | 47 | 240 | 0.9 | 8.7 | 0.00 | 0.00 | 0.00 | 72 | 1012.7 |
| 20260504024551 | 47 | 0 | 0.0 | 2.6 | 0.00 | 0.00 | 0.00 | 67 | 1012.6 |
| 20260504023045 | 47 | 0 | 0.0 | 0.0 | 0.00 | 0.00 | 0.00 | 62 | 1012.5 |
| 20260504021546 | 48 | 0 | 0.0 | 0.0 | 0.00 | 0.00 | 0.00 | 59 | 1012.5 |
| 20260504020044 | 49 | 0 | 0.0 | 0.0 | 0.00 | 0.00 | 0.00 | 55 | 1012.4 |
| 20260504014548 | 50 | 0 | 0.0 | 0.0 | 0.00 | 0.00 | 0.00 | 52 | 1012.4 |
| 20260504013055 | 50 | 0 | 0.0 | 2.6 | 0.00 | 0.00 | 0.00 | 51 | 1012.2 |
| 20260504011545 | 51 | 0 | 0.0 | 2.6 | 0.00 | 0.00 | 0.00 | 49 | 1012.0 |
| 20260504010045 | 51 | 0 | 0.0 | 2.6 | 0.00 | 0.00 | 0.00 | 48 | 1011.9 |
| 20260504004543 | 52 | 0 | 0.0 | 0.0 | 0.00 | 0.00 | 0.00 | 45 | 1011.6 |
| 20260504003041 | 53 | 0 | 0.0 | 0.0 | 0.00 | 0.00 | 0.00 | 41 | 1011.5 |
| 20260504001543 | 53 | 0 | 0.0 | 2.6 | 0.00 | 0.00 | 0.00 | 40 | 1011.2 |
| 20260504000041 | 54 | 278 | 0.0 | 1.7 | 0.00 | 0.00 | 0.00 | 39 | 1011.0 |
| 20260503234545 | 55 | 0 | 0.9 | 6.1 | 0.00 | 0.00 | 0.00 | 40 | 1010.8 |
| 20260503233045 | 56 | 0 | 0.0 | 4.3 | 0.00 | 0.00 | 0.00 | 37 | 1010.6 |